Location: ?????
(33.6267°N, 35.4675°E)
Time: 17:35:38
(UTC+00:00)

EO 1 Delta rocket - Pass Details

Date: 12 November 2019
Orbit: 698 x 1791 km, 95.4° (Epoch: 05 December)

Event Time Altitude Azimuth Distance (km) Brightness Sun altitude
Rises 15:19:58 0° 164° (SSE) 3,277 7.3 -9.2°
Reaches altitude 10° 15:22:05 10° 163° (SSE) 2,438 6.6 -9.7°
Maximum altitude 15:27:28 75° 78° (ENE) 1,004 4.4 -10.8°
Drops below altitude 10° 15:34:22 10° 354° (N) 3,104 7.0 -12.1°
Sets 15:37:20 0° 353° (N) 4,240 7.8 -12.8°
